GFSNIL_sfc_wetblb_150.txt.gz
Wetbulb
47.95 47.74 47.43 46.74 46.39 46.45 46.99 48.86 48.96 50.67 51.09 52.24 53.28 53.95 54.18 54.68 54.05 53.92 54.32 54.37 54.76 54.99
46.61 47.03 47.30 47.26 46.95 46.58 46.92 48.33 49.36 50.15 50.17 50.39 51.53 52.70 53.22 53.04 51.57 54.11 54.58 55.03 55.22 54.72
46.04 46.25 46.46 46.67 45.63 45.63 45.57 47.14 48.82 48.25 49.12 48.82 48.69 51.24 51.53 51.57 51.61 51.28 52.57 51.63 52.48 51.59
45.22 45.59 45.33 44.72 44.80 44.24 44.77 46.63 46.37 47.58 47.93 46.99 48.06 49.58 47.91 48.45 50.01 47.68 47.92 48.13 47.78 46.80
45.92 45.35 44.41 43.73 43.78 43.68 42.86 45.93 45.40 45.51 46.68 45.67 46.26 46.18 45.99 45.70 46.18 45.44 44.76 44.14 44.09 43.90
45.40 44.53 43.63 43.43 43.50 42.98 42.14 43.59 45.00 45.04 44.68 44.90 44.79 44.10 44.48 44.89 45.48 44.41 42.47 41.19 40.17 39.36
44.81 44.31 43.85 43.60 43.13 42.40 41.87 41.73 43.71 44.83 45.23 44.23 43.70 43.83 44.00 44.09 43.71 41.83 40.11 39.61 38.81 38.48
45.10 44.96 44.17 43.34 42.29 41.41 41.25 41.46 41.61 41.98 42.76 43.41 42.98 43.75 41.38 42.01 41.52 39.85 38.14 37.60 37.92 37.78
45.31 44.48 43.30 42.16 41.37 40.14 39.58 39.75 40.01 38.90 39.12 39.18 41.68 43.46 43.24 42.57 40.09 40.50 39.14 36.85 36.27 37.13
44.94 44.07 42.80 41.99 40.48 38.96 37.72 37.85 37.86 37.06 36.88 37.07 38.02 43.33 42.61 42.58 39.21 38.64 36.88 36.12 35.57 34.57
44.09 43.38 42.58 40.96 39.77 38.20 37.20 36.85 36.71 36.75 36.66 36.11 37.85 43.49 42.44 42.05 37.26 36.69 36.16 35.80 35.33 33.80
43.72 43.06 41.99 40.79 39.59 38.77 36.96 36.49 36.65 37.49 36.42 35.58 36.15 42.80 42.26 40.18 36.12 36.00 35.21 35.72 35.46 35.06
43.78 43.31 41.86 41.16 39.33 38.12 36.99 37.78 37.14 36.91 36.42 38.00 35.14 41.78 42.49 40.39 34.62 32.37 33.14 33.87 34.28 39.43
43.13 42.45 41.88 40.43 39.19 38.02 37.58 36.55 36.52 36.85 36.79 36.81 37.93 36.13 42.86 42.11 35.20 32.88 31.91 32.49 32.04 33.69

GFSNIL_sfc_wetblb_153.txt.gz
Wetbulb
46.68 46.30 46.33 45.85 45.45 44.98 45.16 45.86 47.34 49.12 50.28 50.97 51.64 52.39 52.77 53.41 53.89 51.51 53.43 53.33 54.12 54.63
45.71 45.68 46.12 46.42 45.83 45.50 45.60 46.87 46.68 47.14 49.63 50.15 49.13 50.34 52.17 52.17 51.83 50.24 51.27 53.05 52.67 51.94
45.12 45.28 45.30 45.84 45.36 44.85 44.53 45.10 45.80 46.49 48.34 49.09 47.18 48.99 50.90 50.14 49.91 48.76 48.12 49.26 48.87 50.04
44.68 44.83 44.59 44.09 44.36 44.11 43.33 43.81 45.00 45.48 45.76 45.96 45.81 46.50 46.33 45.96 46.84 45.69 45.26 45.13 45.24 46.04
44.85 44.39 43.54 43.28 43.30 43.32 42.36 42.02 43.96 44.43 44.37 44.39 44.94 44.42 43.91 44.39 44.73 44.25 43.22 42.44 42.04 41.50
44.91 44.22 43.44 43.15 43.21 43.00 42.03 40.89 41.97 43.95 43.55 43.80 44.20 43.47 42.95 43.00 43.42 42.67 40.86 39.70 38.63 38.31
44.73 44.23 43.92 43.39 43.02 42.71 41.90 40.43 40.28 42.98 43.61 43.98 43.53 43.02 42.85 42.86 42.01 40.66 39.07 38.47 37.50 36.94
45.12 44.54 43.94 43.29 42.84 42.38 41.45 40.64 40.20 40.57 41.58 42.48 42.72 42.82 41.42 40.91 40.28 39.32 37.29 36.62 36.75 36.55
44.50 44.08 43.50 43.25 42.38 41.22 40.11 39.16 39.11 38.95 38.77 38.64 40.72 44.08 44.88 41.87 38.87 39.60 38.30 36.22 35.47 36.25
43.79 43.59 43.29 42.76 41.17 40.58 39.42 37.95 37.50 37.51 37.27 36.44 36.80 43.37 45.06 44.13 38.91 37.82 37.20 36.24 34.95 34.52
42.47 42.38 42.54 41.40 41.17 40.48 38.25 37.75 37.29 37.28 37.18 36.34 37.02 42.41 44.64 44.02 37.99 36.15 35.95 35.16 34.36 32.63
41.97 41.78 41.63 40.57 40.64 40.29 37.20 37.03 35.95 36.19 36.08 35.58 36.34 41.73 43.90 42.50 36.58 35.91 34.92 34.96 34.38 33.53
41.95 41.67 41.35 41.29 40.27 38.95 36.82 38.02 36.78 36.45 35.61 38.19 36.54 39.85 43.66 42.42 35.55 32.97 33.85 33.29 33.54 39.78
41.97 41.58 41.50 41.01 39.89 38.71 37.29 36.28 34.91 35.13 35.84 35.19 36.90 35.35 42.63 43.61 36.43 34.44 32.26 32.07 31.54 33.17

GFSNIL_sfc_wetblb_156.txt.gz
Wetbulb
45.43 45.39 45.27 45.22 44.90 44.27 44.02 44.60 45.54 46.43 47.83 49.73 50.58 50.54 51.15 51.97 52.94 52.62 49.38 50.81 53.54 53.65
44.65 44.73 45.16 45.53 45.34 44.92 44.68 45.65 45.52 45.58 46.41 49.34 49.87 48.21 49.55 51.37 50.97 51.26 49.99 48.04 48.35 49.14
44.93 44.65 44.66 44.69 44.80 44.91 44.68 43.92 44.08 44.52 45.54 47.31 47.88 48.17 49.32 49.53 48.33 47.22 46.30 47.43 46.50 46.75
44.73 44.44 44.02 43.70 44.01 44.41 44.15 43.37 42.67 43.76 44.49 44.43 44.71 45.03 44.49 44.52 45.24 44.70 43.98 43.68 43.32 43.82
44.99 44.19 43.40 42.93 43.13 43.34 42.68 42.46 41.50 42.37 43.38 43.39 44.09 44.01 43.02 42.86 43.50 42.93 42.47 41.44 40.49 40.34
44.74 43.94 43.37 43.14 43.06 42.94 42.41 41.62 40.64 41.43 42.06 42.28 43.11 43.06 42.78 42.14 42.01 42.08 41.19 39.37 38.32 37.76
44.22 44.13 44.13 44.00 43.23 42.98 42.57 41.54 40.36 40.11 41.51 42.32 42.42 42.91 42.57 42.16 41.26 40.92 39.54 38.32 36.95 36.03
44.17 44.18 43.79 43.38 42.96 42.93 42.25 42.38 40.93 39.68 39.96 41.34 42.03 42.92 41.22 40.92 40.15 39.28 37.59 36.50 36.10 35.66
42.48 42.88 43.07 43.02 42.75 42.08 41.97 40.87 39.71 38.92 38.96 38.69 40.74 44.15 45.78 43.29 38.40 38.68 38.13 36.38 35.06 34.88
41.25 41.30 42.11 42.67 41.94 41.29 40.87 40.08 38.59 38.36 37.54 37.72 37.78 42.54 44.83 45.61 38.86 37.00 36.78 36.36 35.44 34.42
40.75 40.52 41.08 40.84 40.88 40.79 39.74 39.19 38.75 38.12 37.51 37.50 37.96 41.95 43.62 44.83 39.14 36.34 35.70 35.90 35.41 33.74
40.23 40.04 40.41 40.28 40.61 40.34 39.21 37.84 37.12 37.07 36.53 35.75 37.38 41.42 42.78 42.66 37.98 35.83 34.40 35.17 34.36 33.35
39.92 39.70 39.96 40.42 40.77 40.19 38.63 38.92 38.01 37.50 36.03 38.17 36.94 40.21 42.19 42.32 38.00 35.38 34.37 33.43 34.43 39.19
39.36 38.88 39.45 39.22 38.87 38.89 38.32 37.32 36.72 35.97 36.74 35.40 37.15 36.88 41.30 43.05 37.43 36.42 33.26 33.25 33.14 34.05

GFSNIL_sfc_wetblb_159.txt.gz
Wetbulb
44.78 44.51 44.61 44.42 44.22 43.91 43.78 43.91 44.34 44.76 45.48 46.41 48.34 50.30 50.34 50.42 51.52 52.31 51.26 49.88 47.93 50.41
44.93 44.11 44.62 44.43 44.44 44.56 44.38 45.15 44.66 44.36 44.46 45.53 47.24 49.36 49.17 49.39 50.67 50.31 50.64 48.50 46.44 46.60
44.90 44.41 44.29 43.85 43.95 44.14 44.43 44.27 43.90 43.26 43.42 44.21 45.16 46.21 46.96 48.21 47.99 46.28 45.33 45.62 44.96 44.80
44.48 44.54 43.90 43.32 43.58 43.70 43.82 43.74 43.05 42.61 42.67 42.83 43.31 44.22 43.57 43.31 44.10 43.72 43.46 42.88 42.36 41.92
44.16 44.11 43.46 43.12 43.14 43.21 42.92 42.92 42.39 41.74 41.55 41.92 42.53 42.90 42.44 42.00 42.51 42.01 41.68 41.72 40.13 39.56
43.11 43.31 43.24 43.18 43.13 42.77 42.37 41.94 41.47 40.88 40.33 40.85 41.52 41.51 41.96 41.75 41.39 40.90 40.72 40.54 38.68 37.90
42.11 42.51 43.06 43.44 43.29 43.04 42.63 41.98 41.18 40.81 40.66 40.75 40.95 41.36 41.63 41.89 40.91 40.09 40.02 39.44 37.55 36.20
41.25 41.82 42.21 42.42 42.57 42.77 42.35 42.65 41.75 40.80 39.92 39.90 40.60 41.47 40.67 40.74 40.05 39.12 38.10 37.42 36.41 35.48
39.76 39.99 40.30 40.57 40.96 41.38 41.40 41.19 40.67 40.01 40.00 38.85 40.45 43.44 45.08 43.39 39.43 38.76 37.77 36.71 35.94 35.10
39.29 39.23 39.32 39.37 39.54 40.07 40.16 40.05 39.58 39.35 38.64 38.70 39.01 43.25 44.81 45.53 40.89 38.24 36.63 35.89 35.71 35.17
39.28 39.16 39.09 38.90 39.05 39.35 39.49 39.35 39.27 39.24 38.79 38.32 39.32 42.58 44.07 44.56 40.14 37.78 36.42 35.57 35.25 34.60
38.27 37.95 38.02 37.85 38.23 38.40 38.59 38.32 37.67 37.92 37.67 36.55 38.42 41.94 43.29 42.81 38.64 37.78 36.88 35.86 35.33 35.22
37.82 37.45 37.37 37.64 37.28 37.64 37.83 38.43 38.17 37.98 36.70 37.92 36.69 40.22 42.12 42.38 37.67 36.17 36.52 34.72 35.26 39.73
38.10 37.04 36.55 36.45 37.02 37.53 37.54 37.07 36.31 36.41 36.20 35.54 35.96 36.20 41.07 42.67 37.78 37.14 35.52 34.68 34.12 34.72